QPF
0.08 0.09 0.07 0.05 0.04 0.03 0.03 0.06 0.08 0.07 0.05 0.04 0.05 0.04 0.03 0.04 0.03 0.02 0.02 0.02 0.02 0.02 0.01 0.01 0.01 0.01 0.02 0.03 0.05 0.05 0.05 0.04 0.03 0.02 0.02 0.01 0.02 0.02
0.07 0.08 0.08 0.06 0.06 0.04 0.03 0.04 0.06 0.08 0.06 0.04 0.04 0.03 0.03 0.03 0.04 0.02 0.01 0.01 0.01 0.01 0.01 0.01 0.01 0.01 0.02 0.02 0.03 0.04 0.05 0.04 0.03 0.02 0.02 0.01 0.01 0.01
0.05 0.06 0.05 0.05 0.05 0.05 0.05 0.05 0.05 0.07 0.06 0.04 0.04 0.05 0.05 0.05 0.04 0.02 0.01 0.01 0.01 0.01 0.01 0.01 0.01 0.02 0.03 0.03 0.02 0.03 0.03 0.04 0.04 0.03 0.03 0.02 0.01 0.01
0.07 0.07 0.07 0.07 0.06 0.06 0.05 0.05 0.05 0.07 0.07 0.07 0.06 0.06 0.07 0.07 0.05 0.04 0.02 0.01 0.01 0.02 0.01 0.01 0.01 0.02 0.02 0.03 0.03 0.03 0.02 0.02 0.03 0.03 0.03 0.02 0.01 0.01
0.08 0.08 0.07 0.08 0.07 0.06 0.06 0.06 0.05 0.06 0.07 0.07 0.06 0.08 0.06 0.06 0.06 0.04 0.03 0.04 0.02 0.02 0.02 0.01 0.01 0.01 0.01 0.02 0.02 0.02 0.02 0.02 0.02 0.03 0.03 0.03 0.02 0.02
0.08 0.08 0.07 0.08 0.07 0.07 0.07 0.07 0.06 0.06 0.06 0.06 0.06 0.07 0.06 0.06 0.06 0.06 0.05 0.05 0.03 0.02 0.02 0.01 0.01 0.01 0.01 0.01 0.01 0.01 0.01 0.01 0.02 0.02 0.02 0.02 0.02 0.02
0.07 0.08 0.08 0.08 0.08 0.08 0.06 0.06 0.06 0.05 0.05 0.06 0.06 0.06 0.06 0.07 0.05 0.06 0.07 0.07 0.06 0.05 0.04 0.03 0.02 0.02 0.02 0.01 0.01 0.00 0.00 0.00 0.00 0.01 0.01 0.02 0.02 0.02
0.04 0.06 0.07 0.07 0.08 0.08 0.07 0.06 0.06 0.06 0.06 0.07 0.07 0.06 0.07 0.06 0.07 0.08 0.09 0.08 0.07 0.06 0.06 0.05 0.06 0.04 0.03 0.03 0.02 0.02 0.01 0.00 0.00 0.00 0.00 0.01 0.02 0.02
0.03 0.04 0.04 0.06 0.09 0.10 0.10 0.10 0.07 0.06 0.06 0.08 0.08 0.07 0.07 0.07 0.09 0.08 0.08 0.08 0.07 0.06 0.07 0.05 0.06 0.06 0.04 0.04 0.05 0.04 0.02 0.01 0.01 0.00 0.00 0.00 0.01 0.03
0.02 0.03 0.04 0.04 0.06 0.08 0.09 0.09 0.08 0.07 0.06 0.05 0.06 0.06 0.06 0.07 0.07 0.08 0.08 0.08 0.08 0.07 0.08 0.06 0.05 0.04 0.03 0.04 0.06 0.06 0.04 0.02 0.01 0.01 0.01 0.01 0.01 0.02
0.03 0.03 0.04 0.05 0.07 0.09 0.09 0.09 0.09 0.09 0.09 0.08 0.07 0.06 0.06 0.06 0.05 0.06 0.06 0.06 0.05 0.04 0.06 0.07 0.06 0.06 0.05 0.04 0.06 0.06 0.06 0.04 0.02 0.01 0.01 0.01 0.01 0.02
0.03 0.03 0.04 0.04 0.05 0.07 0.06 0.06 0.07 0.08 0.10 0.11 0.09 0.07 0.06 0.06 0.05 0.04 0.04 0.04 0.03 0.02 0.03 0.05 0.05 0.07 0.10 0.08 0.06 0.05 0.04 0.05 0.04 0.03 0.02 0.02 0.02 0.02
0.03 0.04 0.03 0.03 0.03 0.03 0.04 0.04 0.05 0.07 0.09 0.10 0.10 0.09 0.08 0.08 0.06 0.04 0.04 0.04 0.03 0.02 0.02 0.04 0.04 0.06 0.07 0.06 0.06 0.07 0.09 0.07 0.06 0.05 0.05 0.05 0.04 0.03
0.03 0.03 0.04 0.05 0.04 0.04 0.04 0.04 0.05 0.05 0.05 0.07 0.08 0.07 0.06 0.05 0.05 0.05 0.04 0.05 0.05 0.04 0.03 0.04 0.05 0.06 0.07 0.06 0.05 0.05 0.06 0.08 0.11 0.11 0.08 0.07 0.06 0.05
0.02 0.02 0.03 0.04 0.03 0.04 0.04 0.04 0.05 0.05 0.04 0.05 0.05 0.06 0.06 0.05 0.05 0.06 0.06 0.07 0.07 0.06 0.04 0.04 0.04 0.05 0.07 0.07 0.06 0.06 0.08 0.07 0.06 0.09 0.11 0.08 0.05 0.05
0.03 0.03 0.03 0.03 0.03 0.03 0.02 0.03 0.03 0.03 0.05 0.04 0.04 0.05 0.07 0.07 0.07 0.07 0.08 0.09 0.08 0.06 0.06 0.06 0.06 0.07 0.09 0.09 0.08 0.07 0.08 0.09 0.07 0.07 0.07 0.08 0.08 0.08
0.04 0.04 0.04 0.04 0.04 0.04 0.04 0.04 0.04 0.05 0.06 0.07 0.08 0.07 0.08 0.09 0.09 0.10 0.11 0.12 0.12 0.10 0.09 0.09 0.10 0.10 0.12 0.13 0.12 0.09 0.09 0.09 0.09 0.09 0.09 0.09 0.09 0.11
0.06 0.05 0.05 0.05 0.05 0.05 0.05 0.05 0.05 0.06 0.07 0.09 0.10 0.10 0.11 0.12 0.12 0.12 0.13 0.13 0.12 0.12 0.12 0.12 0.13 0.13 0.14 0.14 0.13 0.11 0.10 0.09 0.08 0.09 0.10 0.09 0.06 0.06
0.05 0.06 0.06 0.06 0.05 0.05 0.06 0.06 0.06 0.06 0.08 0.10 0.11 0.11 0.12 0.13 0.16 0.17 0.18 0.15 0.12 0.11 0.12 0.12 0.13 0.14 0.13 0.11 0.11 0.12 0.11 0.10 0.09 0.09 0.08 0.09 0.08 0.06
0.04 0.05 0.05 0.05 0.05 0.05 0.06 0.06 0.06 0.07 0.08 0.08 0.09 0.10 0.11 0.12 0.14 0.14 0.16 0.18 0.17 0.15 0.13 0.13 0.15 0.17 0.15 0.12 0.12 0.12 0.11 0.10 0.09 0.08 0.07 0.07 0.08 0.06
0.06 0.06 0.05 0.05 0.05 0.06 0.06 0.06 0.06 0.06 0.06 0.07 0.08 0.09 0.10 0.11 0.12 0.13 0.12 0.14 0.16 0.16 0.15 0.14 0.14 0.15 0.14 0.13 0.11 0.09 0.08 0.07 0.07 0.08 0.07 0.06 0.05 0.06
0.07 0.07 0.07 0.07 0.06 0.06 0.07 0.07 0.06 0.05 0.07 0.09 0.10 0.09 0.09 0.10 0.10 0.12 0.11 0.11 0.10 0.09 0.09 0.08 0.08 0.08 0.08 0.07 0.06 0.06 0.05 0.04 0.05 0.05 0.06 0.06 0.06 0.05
0.07 0.06 0.06 0.07 0.08 0.08 0.08 0.08 0.08 0.09 0.09 0.08 0.09 0.09 0.09 0.08 0.07 0.09 0.10 0.09 0.08 0.07 0.06 0.06 0.05 0.05 0.06 0.06 0.05 0.05 0.04 0.04 0.04 0.04 0.04 0.05 0.05 0.03
MSLP
1005.87 1006.07 1006.34 1006.64 1006.93 1007.19 1007.39 1007.51 1007.55 1007.52 1007.47 1007.41 1007.40 1007.45 1007.59 1007.83 1008.17 1008.60 1009.10 1009.66 1010.24 1010.84 1011.43 1012.00 1012.54 1013.04 1013.50 1013.93 1014.32 1014.68 1015.02 1015.35 1015.67 1015.98 1016.29 1016.58 1016.86 1017.11
1005.20 1005.31 1005.49 1005.72 1005.97 1006.21 1006.42 1006.58 1006.69 1006.74 1006.77 1006.79 1006.84 1006.94 1007.10 1007.34 1007.67 1008.07 1008.56 1009.10 1009.68 1010.29 1010.89 1011.49 1012.05 1012.58 1013.07 1013.51 1013.92 1014.30 1014.66 1015.02 1015.38 1015.73 1016.09 1016.44 1016.76 1017.04
1004.63 1004.60 1004.65 1004.77 1004.95 1005.14 1005.34 1005.53 1005.70 1005.85 1005.98 1006.11 1006.25 1006.43 1006.64 1006.92 1007.26 1007.66 1008.13 1008.66 1009.23 1009.83 1010.43 1011.02 1011.59 1012.12 1012.61 1013.06 1013.47 1013.87 1014.26 1014.65 1015.06 1015.47 1015.90 1016.31 1016.69 1017.03
1004.15 1003.96 1003.87 1003.85 1003.91 1004.03 1004.20 1004.41 1004.63 1004.87 1005.11 1005.36 1005.61 1005.89 1006.18 1006.51 1006.89 1007.31 1007.77 1008.28 1008.83 1009.40 1009.98 1010.55 1011.10 1011.61 1012.09 1012.53 1012.95 1013.37 1013.78 1014.22 1014.68 1015.17 1015.66 1016.15 1016.61 1017.01
1003.73 1003.39 1003.12 1002.95 1002.89 1002.92 1003.04 1003.25 1003.51 1003.83 1004.17 1004.53 1004.90 1005.28 1005.67 1006.06 1006.48 1006.92 1007.39 1007.88 1008.40 1008.94 1009.48 1010.01 1010.53 1011.01 1011.47 1011.90 1012.32 1012.75 1013.20 1013.69 1014.21 1014.78 1015.36 1015.94 1016.48 1016.96
1003.34 1002.84 1002.42 1002.11 1001.91 1001.85 1001.92 1002.11 1002.39 1002.76 1003.18 1003.64 1004.11 1004.58 1005.05 1005.50 1005.96 1006.41 1006.88 1007.36 1007.85 1008.35 1008.85 1009.35 1009.82 1010.27 1010.71 1011.13 1011.56 1012.02 1012.51 1013.05 1013.65 1014.29 1014.97 1015.63 1016.27 1016.83
1002.91 1002.29 1001.75 1001.31 1001.01 1000.87 1000.88 1001.03 1001.32 1001.71 1002.18 1002.70 1003.24 1003.77 1004.29 1004.79 1005.27 1005.74 1006.20 1006.67 1007.13 1007.60 1008.07 1008.52 1008.97 1009.40 1009.83 1010.26 1010.71 1011.19 1011.73 1012.34 1013.01 1013.73 1014.49 1015.24 1015.95 1016.59
1002.37 1001.68 1001.07 1000.56 1000.19 999.97 999.93 1000.06 1000.33 1000.72 1001.21 1001.74 1002.31 1002.87 1003.41 1003.93 1004.42 1004.89 1005.35 1005.79 1006.24 1006.69 1007.13 1007.57 1008.00 1008.43 1008.86 1009.31 1009.79 1010.32 1010.92 1011.59 1012.32 1013.12 1013.94 1014.76 1015.54 1016.23
1001.71 1001.00 1000.36 999.82 999.42 999.18 999.11 999.20 999.44 999.81 1000.27 1000.80 1001.35 1001.91 1002.45 1002.96 1003.45 1003.91 1004.36 1004.80 1005.24 1005.68 1006.11 1006.55 1006.99 1007.43 1007.89 1008.37 1008.89 1009.47 1010.12 1010.84 1011.63 1012.48 1013.35 1014.22 1015.04 1015.78
1000.91 1000.23 999.61 999.09 998.69 998.45 998.37 998.44 998.65 998.98 999.40 999.89 1000.41 1000.93 1001.44 1001.94 1002.41 1002.87 1003.33 1003.77 1004.21 1004.67 1005.12 1005.58 1006.04 1006.51 1007.00 1007.51 1008.07 1008.70 1009.39 1010.15 1010.98 1011.86 1012.76 1013.64 1014.48 1015.22
1000.04 999.40 998.83 998.36 998.00 997.78 997.70 997.75 997.93 998.22 998.59 999.03 999.49 999.97 1000.45 1000.93 1001.41 1001.87 1002.33 1002.80 1003.27 1003.75 1004.24 1004.73 1005.22 1005.72 1006.24 1006.79 1007.38 1008.03 1008.74 1009.53 1010.37 1011.25 1012.15 1013.03 1013.85 1014.59
999.15 998.57 998.07 997.65 997.34 997.15 997.07 997.12 997.27 997.51 997.83 998.21 998.62 999.06 999.52 999.99 1000.47 1000.95 1001.45 1001.95 1002.47 1002.99 1003.51 1004.04 1004.56 1005.09 1005.63 1006.20 1006.80 1007.45 1008.17 1008.94 1009.77 1010.63 1011.51 1012.35 1013.15 1013.85
998.36 997.82 997.36 996.99 996.72 996.55 996.48 996.51 996.62 996.82 997.09 997.41 997.78 998.19 998.63 999.11 999.61 1000.13 1000.67 1001.23 1001.80 1002.37 1002.93 1003.49 1004.04 1004.59 1005.13 1005.69 1006.29 1006.93 1007.61 1008.35 1009.15 1009.97 1010.80 1011.61 1012.35 1013.03
997.74 997.23 996.79 996.45 996.19 996.02 995.94 995.93 996.00 996.14 996.35 996.62 996.95 997.33 997.77 998.26 998.79 999.36 999.96 1000.58 1001.20 1001.83 1002.43 1003.02 1003.58 1004.13 1004.67 1005.21 1005.77 1006.37 1007.01 1007.71 1008.45 1009.22 1010.00 1010.76 1011.47 1012.11
997.39 996.87 996.43 996.08 995.81 995.61 995.48 995.42 995.42 995.49 995.63 995.83 996.11 996.47 996.90 997.40 997.97 998.58 999.24 999.91 1000.59 1001.26 1001.91 1002.51 1003.09 1003.62 1004.14 1004.65 1005.17 1005.73 1006.32 1006.97 1007.66 1008.37 1009.11 1009.83 1010.51 1011.13
997.37 996.83 996.36 995.97 995.65 995.39 995.19 995.03 994.94 994.91 994.95 995.07 995.29 995.60 996.00 996.50 997.09 997.73 998.43 999.16 999.89 1000.60 1001.27 1001.90 1002.47 1003.00 1003.50 1003.99 1004.47 1004.98 1005.53 1006.13 1006.78 1007.47 1008.17 1008.87 1009.53 1010.15
997.70 997.12 996.62 996.18 995.79 995.43 995.13 994.86 994.64 994.48 994.39 994.40 994.52 994.75 995.10 995.57 996.14 996.79 997.51 998.27 999.04 999.78 1000.48 1001.13 1001.72 1002.25 1002.75 1003.21 1003.69 1004.17 1004.70 1005.27 1005.90 1006.57 1007.25 1007.95 1008.62 1009.25
998.35 997.76 997.22 996.72 996.25 995.80 995.37 994.96 994.59 994.28 994.04 993.90 993.89 994.00 994.26 994.66 995.18 995.81 996.53 997.29 998.07 998.84 999.57 1000.25 1000.86 1001.42 1001.93 1002.41 1002.89 1003.37 1003.90 1004.48 1005.10 1005.77 1006.46 1007.17 1007.86 1008.53
999.26 998.68 998.13 997.59 997.04 996.50 995.94 995.39 994.87 994.39 993.97 993.66 993.49 993.45 993.58 993.87 994.31 994.89 995.57 996.31 997.10 997.89 998.65 999.36 1000.01 1000.61 1001.16 1001.67 1002.18 1002.70 1003.25 1003.84 1004.48 1005.17 1005.88 1006.61 1007.33 1008.03
1000.33 999.79 999.25 998.69 998.11 997.49 996.83 996.15 995.48 994.83 994.25 993.76 993.40 993.21 993.18 993.34 993.67 994.15 994.77 995.49 996.26 997.06 997.84 998.59 999.30 999.95 1000.55 1001.12 1001.68 1002.24 1002.83 1003.45 1004.12 1004.82 1005.56 1006.31 1007.06 1007.79
1001.45 1000.97 1000.48 999.94 999.35 998.69 997.97 997.20 996.40 995.62 994.87 994.22 993.69 993.33 993.14 993.15 993.35 993.74 994.28 994.94 995.69 996.48 997.28 998.07 998.82 999.52 1000.18 1000.81 1001.42 1002.03 1002.65 1003.31 1004.00 1004.73 1005.48 1006.25 1007.01 1007.75
1002.48 1002.10 1001.69 1001.20 1000.64 999.99 999.24 998.43 997.55 996.67 995.81 995.02 994.35 993.83 993.50 993.37 993.45 993.72 994.17 994.76 995.46 996.23 997.03 997.84 998.62 999.37 1000.07 1000.74 1001.39 1002.04 1002.70 1003.37 1004.07 1004.81 1005.57 1006.33 1007.09 1007.84
1003.33 1003.07 1002.75 1002.35 1001.85 1001.24 1000.52 999.71 998.82 997.89 996.96 996.09 995.31 994.69 994.23 993.98 993.93 994.10 994.45 994.96 995.60 996.33 997.11 997.90 998.68 999.44 1000.17 1000.86 1001.53 1002.19 1002.85 1003.53 1004.23 1004.95 1005.69 1006.45 1007.19 1007.92
Thickness
5759 5758 5756 5757 5757 5757 5756 5752 5744 5738 5739 5744 5747 5750 5751 5750 5746 5744 5743 5740 5737 5735 5733 5731 5728 5726 5724 5722 5721 5719 5717 5716 5715 5713 5712 5710 5708 5707
5757 5755 5754 5754 5754 5754 5754 5752 5749 5743 5738 5743 5745 5749 5749 5748 5745 5744 5742 5739 5737 5734 5732 5729 5727 5725 5723 5721 5719 5717 5715 5714 5712 5711 5710 5708 5706 5705
5753 5752 5750 5750 5750 5750 5750 5749 5747 5744 5738 5741 5745 5746 5745 5744 5742 5741 5741 5738 5735 5733 5730 5728 5726 5724 5722 5720 5717 5715 5713 5711 5710 5708 5707 5705 5704 5702
5748 5748 5747 5747 5745 5745 5744 5744 5744 5742 5738 5735 5738 5740 5740 5741 5740 5738 5739 5738 5736 5733 5730 5727 5725 5723 5721 5719 5717 5714 5712 5710 5708 5706 5704 5703 5702 5700
5746 5744 5743 5742 5740 5740 5740 5739 5739 5739 5737 5733 5733 5735 5736 5737 5735 5735 5736 5735 5734 5732 5729 5726 5724 5722 5720 5718 5716 5714 5711 5708 5706 5703 5701 5700 5698 5697
5743 5742 5741 5739 5736 5736 5735 5734 5734 5732 5731 5730 5729 5729 5730 5731 5730 5727 5727 5728 5728 5729 5726 5725 5722 5721 5718 5716 5714 5712 5709 5707 5704 5702 5699 5697 5696 5694
5738 5738 5737 5736 5734 5732 5731 5729 5728 5726 5725 5724 5723 5723 5723 5722 5722 5723 5720 5722 5723 5723 5721 5721 5719 5717 5715 5712 5711 5709 5707 5705 5703 5701 5698 5695 5693 5691
5731 5732 5732 5731 5730 5728 5727 5725 5723 5721 5719 5717 5718 5717 5717 5719 5719 5718 5715 5713 5713 5719 5716 5716 5717 5714 5714 5711 5709 5707 5705 5704 5701 5699 5696 5694 5691 5688
5725 5724 5726 5728 5725 5723 5722 5721 5719 5717 5715 5714 5712 5713 5714 5715 5714 5712 5711 5709 5710 5714 5712 5710 5713 5711 5711 5711 5708 5706 5704 5701 5699 5696 5693 5690 5688 5686
5719 5719 5718 5718 5719 5717 5716 5715 5714 5714 5712 5710 5710 5711 5713 5713 5712 5710 5708 5707 5709 5710 5709 5703 5706 5706 5708 5706 5705 5704 5701 5699 5696 5693 5689 5686 5684 5681
5712 5712 5712 5711 5711 5709 5708 5707 5707 5708 5709 5708 5708 5707 5707 5708 5707 5704 5702 5699 5699 5702 5704 5700 5700 5700 5701 5701 5700 5699 5697 5694 5692 5689 5685 5683 5680 5676
5704 5704 5703 5703 5702 5701 5700 5699 5699 5700 5701 5702 5701 5702 5702 5702 5701 5699 5697 5694 5693 5694 5699 5695 5694 5693 5691 5695 5695 5693 5690 5688 5685 5683 5680 5677 5674 5670
5696 5696 5696 5695 5694 5693 5692 5693 5694 5694 5694 5695 5695 5696 5696 5696 5696 5695 5694 5692 5689 5690 5694 5692 5689 5687 5685 5684 5686 5686 5685 5682 5678 5676 5673 5671 5668 5665
5688 5689 5688 5686 5685 5685 5685 5686 5686 5685 5686 5686 5687 5688 5689 5690 5691 5691 5691 5690 5690 5689 5689 5687 5683 5681 5678 5676 5676 5677 5677 5675 5673 5670 5667 5665 5662 5659
5680 5680 5679 5678 5677 5677 5678 5678 5678 5677 5678 5678 5679 5681 5684 5685 5686 5685 5686 5685 5685 5685 5684 5682 5680 5677 5675 5672 5670 5669 5667 5666 5665 5663 5662 5659 5656 5653
5671 5671 5671 5670 5669 5670 5671 5671 5670 5671 5671 5671 5673 5675 5677 5677 5677 5678 5676 5676 5674 5675 5677 5676 5675 5672 5669 5668 5665 5663 5662 5660 5659 5657 5655 5654 5652 5650
5661 5662 5663 5664 5663 5663 5664 5665 5665 5665 5664 5664 5665 5666 5667 5667 5668 5669 5669 5668 5666 5665 5665 5667 5668 5667 5665 5662 5658 5656 5655 5654 5653 5651 5648 5646 5646 5645
5651 5653 5654 5655 5655 5656 5656 5656 5657 5657 5658 5658 5657 5657 5658 5658 5659 5660 5660 5659 5658 5659 5658 5658 5658 5656 5654 5655 5653 5650 5648 5647 5646 5644 5642 5640 5638 5637
5644 5646 5646 5646 5646 5646 5646 5646 5647 5648 5649 5649 5648 5649 5649 5649 5650 5650 5649 5649 5649 5650 5650 5650 5649 5647 5643 5642 5644 5644 5641 5640 5638 5637 5635 5633 5631 5630
5640 5639 5638 5638 5637 5637 5637 5637 5637 5638 5639 5639 5639 5640 5640 5640 5640 5640 5640 5639 5639 5640 5640 5641 5641 5640 5638 5636 5635 5634 5635 5633 5630 5628 5627 5625 5623 5622
5633 5632 5631 5630 5629 5628 5628 5628 5628 5629 5629 5629 5630 5630 5631 5631 5630 5631 5631 5631 5630 5631 5631 5631 5632 5632 5632 5630 5627 5626 5626 5625 5624 5620 5618 5615 5613 5612
5624 5624 5623 5622 5621 5620 5619 5619 5619 5620 5620 5620 5620 5621 5621 5621 5621 5621 5622 5622 5622 5622 5623 5623 5623 5622 5621 5619 5618 5617 5616 5615 5614 5613 5611 5610 5606 5604
5616 5616 5615 5614 5612 5611 5609 5608 5608 5608 5608 5608 5608 5609 5610 5611 5611 5612 5613 5613 5613 5613 5614 5613 5613 5612 5611 5610 5609 5608 5607 5606 5605 5604 5602 5602 5602 5601